Location: Dodgeville, WI 53533, USA
(43.0344°N, 90.0900°W)
Time: 18:53:45
(UTC-06:00)

N. Korean satellite - Pass Details

Date: 02 February 2021
Orbit: 451 x 502 km, 97.2° (Epoch: 06 March)

Event Time Altitude Azimuth Distance (km) Brightness Sun altitude
Rises 04:35:15 0° 29° (NNE) 2,478 10.6 -29.2°
Reaches altitude 10° 04:37:52 10° 51° (NE) 1,594 9.8 -28.8°
Maximum altitude 04:40:08 17° 93° (E) 1,237 9.4 -28.4°
Drops below altitude 10° 04:42:22 10° 135° (SE) 1,580 9.6 -27.9°
Sets 04:44:57 0° 157° (SSE) 2,447 10.4 -27.5°
